TimeCDT,TemperatureF,Dew PointF,Humidity,Sea Level PressureIn,VisibilityMPH,Wind Direction,Wind SpeedMPH,Gust SpeedMPH,PrecipitationIn,Events,Conditions,WindDirDegrees,DateUTC
12:13 AM,60.8,32.0,34,29.82,10.0,South,13.8,-,N/A,,Clear,190,2012-10-04 05:13:00
12:34 AM,60.8,32.0,34,29.85,10.0,WSW,18.4,26.5,N/A,,Clear,240,2012-10-04 05:34:00
12:53 AM,53.6,35.6,51,29.86,7.0,WSW,15.0,27.6,N/A,,Clear,250,2012-10-04 05:53:00
1:13 AM,51.8,37.4,58,29.87,10.0,WSW,20.7,28.8,N/A,,Clear,250,2012-10-04 06:13:00
1:33 AM,50.0,37.4,62,29.89,10.0,West,20.7,26.5,N/A,,Clear,260,2012-10-04 06:33:00
1:54 AM,50.0,39.2,66,29.89,10.0,West,15.0,26.5,N/A,,Clear,260,2012-10-04 06:54:00
2:14 AM,50.0,39.2,66,29.90,10.0,West,18.4,27.6,N/A,,Scattered Clouds,270,2012-10-04 07:14:00
2:33 AM,48.2,37.4,66,29.91,7.0,West,24.2,33.4,N/A,,Scattered Clouds,270,2012-10-04 07:33:00
2:53 AM,48.2,37.4,66,29.91,7.0,West,25.3,34.5,N/A,,Overcast,280,2012-10-04 07:53:00
3:14 AM,46.4,37.4,71,29.92,10.0,West,26.5,36.8,N/A,,Overcast,280,2012-10-04 08:14:00
3:33 AM,46.4,37.4,71,29.91,10.0,WNW,21.9,38.0,N/A,,Mostly Cloudy,290,2012-10-04 08:33:00
3:53 AM,46.4,37.4,71,29.92,10.0,West,19.6,33.4,N/A,,Scattered Clouds,270,2012-10-04 08:53:00
4:14 AM,46.4,37.4,71,29.93,10.0,West,20.7,32.2,N/A,,Mostly Cloudy,280,2012-10-04 09:14:00
4:33 AM,44.6,35.6,71,29.95,10.0,West,32.2,42.6,N/A,,Overcast,280,2012-10-04 09:33:00
4:53 AM,44.6,37.4,76,29.95,10.0,West,19.6,26.5,N/A,,Overcast,280,2012-10-04 09:53:00
5:14 AM,44.6,35.6,71,29.98,10.0,West,27.6,36.8,N/A,,Overcast,280,2012-10-04 10:14:00
5:33 AM,44.6,35.6,71,29.98,10.0,West,29.9,34.5,N/A,,Overcast,280,2012-10-04 10:33:00
5:54 AM,42.8,35.6,76,30.00,10.0,West,24.2,32.2,N/A,,Mostly Cloudy,270,2012-10-04 10:54:00
6:14 AM,42.8,33.8,70,30.02,10.0,West,19.6,28.8,N/A,,Scattered Clouds,270,2012-10-04 11:14:00
6:33 AM,42.8,33.8,70,30.01,10.0,West,16.1,-,N/A,,Clear,280,2012-10-04 11:33:00
6:54 AM,42.8,32.0,66,30.02,10.0,West,19.6,25.3,N/A,,Clear,280,2012-10-04 11:54:00
7:13 AM,41.0,32.0,70,30.03,10.0,West,20.7,28.8,N/A,,Clear,280,2012-10-04 12:13:00
7:39 AM,41.0,32.0,70,30.04,10.0,WNW,26.5,32.2,N/A,,Scattered Clouds,290,2012-10-04 12:39:00
7:54 AM,41.0,32.0,70,30.06,10.0,West,20.7,27.6,N/A,,Mostly Cloudy,280,2012-10-04 12:54:00
8:13 AM,42.8,32.0,66,30.07,10.0,WNW,19.6,26.5,N/A,,Overcast,290,2012-10-04 13:13:00
8:33 AM,41.0,33.8,76,30.07,10.0,West,21.9,27.6,N/A,,Overcast,280,2012-10-04 13:33:00
8:54 AM,42.8,32.0,66,30.08,10.0,WNW,21.9,31.1,N/A,,Overcast,300,2012-10-04 13:54:00
9:13 AM,42.8,32.0,66,30.08,10.0,West,23.0,32.2,N/A,,Overcast,280,2012-10-04 14:13:00
9:33 AM,42.8,32.0,66,30.08,10.0,WNW,17.3,31.1,N/A,,Overcast,300,2012-10-04 14:33:00
9:54 AM,42.8,32.0,66,30.09,10.0,WNW,27.6,33.4,N/A,,Overcast,290,2012-10-04 14:54:00
10:13 AM,44.6,32.0,61,30.09,10.0,West,25.3,32.2,N/A,,Overcast,280,2012-10-04 15:13:00
10:33 AM,44.6,32.0,61,30.10,10.0,WNW,28.8,40.3,N/A,,Overcast,300,2012-10-04 15:33:00
10:54 AM,44.6,32.0,61,30.10,10.0,WNW,25.3,35.7,N/A,,Overcast,300,2012-10-04 15:54:00
11:13 AM,46.4,32.0,57,30.10,10.0,WNW,29.9,36.8,N/A,,Overcast,290,2012-10-04 16:13:00
11:33 AM,46.4,32.0,57,30.11,10.0,WNW,25.3,42.6,N/A,,Mostly Cloudy,300,2012-10-04 16:33:00
11:54 AM,46.4,30.2,53,30.13,10.0,WNW,27.6,39.1,N/A,,Mostly Cloudy,300,2012-10-04 16:54:00
12:13 PM,50.0,30.2,47,30.13,10.0,WNW,25.3,34.5,N/A,,Mostly Cloudy,300,2012-10-04 17:13:00
12:33 PM,48.2,30.2,50,30.14,10.0,WNW,24.2,35.7,N/A,,Scattered Clouds,300,2012-10-04 17:33:00
12:54 PM,50.0,30.2,47,30.15,10.0,NW,27.6,35.7,N/A,,Scattered Clouds,310,2012-10-04 17:54:00
1:13 PM,50.0,30.2,47,30.15,10.0,WNW,26.5,33.4,N/A,,Scattered Clouds,300,2012-10-04 18:13:00
1:34 PM,50.0,30.2,47,30.15,10.0,NW,24.2,35.7,N/A,,Scattered Clouds,310,2012-10-04 18:34:00
1:53 PM,50.0,30.2,47,30.15,10.0,WNW,23.0,34.5,N/A,,Scattered Clouds,300,2012-10-04 18:53:00
2:13 PM,50.0,30.2,47,30.15,10.0,WNW,25.3,35.7,N/A,,Scattered Clouds,290,2012-10-04 19:13:00
2:34 PM,50.0,30.2,47,30.16,10.0,WNW,24.2,34.5,N/A,,Scattered Clouds,300,2012-10-04 19:34:00
2:53 PM,50.0,30.2,47,30.16,10.0,NW,24.2,38.0,N/A,,Clear,310,2012-10-04 19:53:00
3:13 PM,50.0,28.4,43,30.17,10.0,WNW,23.0,35.7,N/A,,Clear,300,2012-10-04 20:13:00
3:34 PM,50.0,28.4,43,30.17,10.0,NW,27.6,35.7,N/A,,Clear,320,2012-10-04 20:34:00
3:53 PM,50.0,28.4,43,30.17,10.0,WNW,19.6,36.8,N/A,,Scattered Clouds,290,2012-10-04 20:53:00
4:13 PM,50.0,28.4,43,30.18,10.0,WNW,20.7,32.2,N/A,,Scattered Clouds,290,2012-10-04 21:13:00
4:34 PM,50.0,28.4,43,30.19,10.0,NW,17.3,31.1,N/A,,Mostly Cloudy,310,2012-10-04 21:34:00
4:53 PM,50.0,28.4,43,30.19,10.0,NW,25.3,32.2,N/A,,Scattered Clouds,310,2012-10-04 21:53:00
5:13 PM,48.2,28.4,46,30.19,10.0,NW,19.6,29.9,N/A,,Scattered Clouds,310,2012-10-04 22:13:00
5:34 PM,48.2,28.4,46,30.20,10.0,WNW,18.4,29.9,N/A,,Scattered Clouds,300,2012-10-04 22:34:00
5:53 PM,46.4,28.4,50,30.20,10.0,WNW,17.3,32.2,N/A,,Mostly Cloudy,300,2012-10-04 22:53:00
6:13 PM,46.4,28.4,50,30.21,10.0,NW,19.6,26.5,N/A,,Overcast,310,2012-10-04 23:13:00
6:34 PM,46.4,28.4,50,30.22,10.0,NW,17.3,-,N/A,,Overcast,310,2012-10-04 23:34:00
6:53 PM,44.6,28.4,53,30.22,10.0,NW,15.0,25.3,N/A,,Overcast,310,2012-10-04 23:53:00
7:13 PM,44.6,28.4,53,30.23,10.0,WNW,19.6,23.0,N/A,,Overcast,300,2012-10-05 00:13:00
7:34 PM,44.6,28.4,53,30.23,10.0,WNW,13.8,26.5,N/A,,Overcast,290,2012-10-05 00:34:00
7:53 PM,44.6,28.4,53,30.24,10.0,NW,16.1,23.0,N/A,,Overcast,310,2012-10-05 00:53:00
8:13 PM,44.6,28.4,53,30.24,10.0,WNW,12.7,-,N/A,,Overcast,290,2012-10-05 01:13:00
8:34 PM,44.6,28.4,53,30.24,10.0,WNW,15.0,20.7,N/A,,Overcast,290,2012-10-05 01:34:00
8:53 PM,44.6,28.4,53,30.25,10.0,WNW,15.0,-,N/A,,Overcast,300,2012-10-05 01:53:00
9:14 PM,44.6,28.4,53,30.25,10.0,WNW,11.5,23.0,N/A,,Overcast,300,2012-10-05 02:14:00
9:33 PM,44.6,28.4,53,30.25,10.0,NW,15.0,21.9,N/A,,Overcast,310,2012-10-05 02:33:00
9:53 PM,44.6,26.6,49,30.25,10.0,WNW,21.9,-,N/A,,Overcast,300,2012-10-05 02:53:00
10:13 PM,42.8,26.6,53,30.24,10.0,NW,16.1,21.9,N/A,,Overcast,310,2012-10-05 03:13:00
10:33 PM,42.8,26.6,53,30.25,10.0,NW,18.4,27.6,N/A,,Overcast,310,2012-10-05 03:33:00
10:54 PM,42.8,26.6,53,30.24,10.0,NW,18.4,29.9,N/A,,Overcast,310,2012-10-05 03:54:00
11:13 PM,42.8,26.6,53,30.23,10.0,NW,15.0,24.2,N/A,,Mostly Cloudy,310,2012-10-05 04:13:00
11:33 PM,42.8,26.6,53,30.23,10.0,NW,15.0,23.0,N/A,,Mostly Cloudy,310,2012-10-05 04:33:00
11:54 PM,42.8,26.6,53,30.23,10.0,NW,18.4,24.2,N/A,,Scattered Clouds,310,2012-10-05 04:54:00